TimeCDT,TemperatureF,Dew PointF,Humidity,Sea Level PressureIn,VisibilityMPH,Wind Direction,Wind SpeedMPH,Gust SpeedMPH,PrecipitationIn,Events,Conditions,WindDirDegrees,DateUTC
12:17 AM,71.6,66.2,83,29.84,9.0,ESE,12.7,-,0.00,Rain-Thunderstorm,Thunderstorms and Rain,110,2013-04-30 05:17:00
12:24 AM,71.6,66.2,83,29.82,5.0,East,16.1,-,0.27,Rain-Thunderstorm,Heavy Thunderstorms and Rain,90,2013-04-30 05:24:00
12:38 AM,71.6,68.0,88,29.82,9.0,East,12.7,-,0.34,Rain-Thunderstorm,Light Thunderstorms and Rain,100,2013-04-30 05:38:00
12:51 AM,71.1,66.9,87,29.80,10.0,East,12.7,-,0.34,Thunderstorm,Thunderstorm,100,2013-04-30 05:51:00
1:51 AM,71.1,66.9,87,29.79,10.0,East,10.4,-,0.00,Rain-Thunderstorm,Light Thunderstorms and Rain,100,2013-04-30 06:51:00
2:48 AM,71.6,66.2,83,29.80,10.0,East,13.8,-,0.00,Rain-Thunderstorm,Light Thunderstorms and Rain,90,2013-04-30 07:48:00
2:51 AM,71.1,66.9,87,29.80,10.0,East,13.8,-,0.00,Rain-Thunderstorm,Light Thunderstorms and Rain,100,2013-04-30 07:51:00
3:51 AM,68.0,64.0,87,29.78,6.0,South,17.3,-,0.14,Rain-Thunderstorm,Thunderstorms and Rain,170,2013-04-30 08:51:00
4:38 AM,66.2,62.6,88,29.75,10.0,South,12.7,-,0.09,,Mostly Cloudy,190,2013-04-30 09:38:00
4:51 AM,66.9,63.0,87,29.76,10.0,South,11.5,-,0.09,,Scattered Clouds,190,2013-04-30 09:51:00
5:48 AM,66.2,62.6,88,29.77,10.0,Calm,Calm,-,N/A,,Partly Cloudy,0,2013-04-30 10:48:00
5:51 AM,66.0,62.1,87,29.77,10.0,Calm,Calm,-,N/A,,Partly Cloudy,0,2013-04-30 10:51:00
6:51 AM,64.9,62.1,90,29.78,10.0,Calm,Calm,-,N/A,,Partly Cloudy,0,2013-04-30 11:51:00
7:51 AM,66.9,64.9,93,29.78,10.0,Calm,Calm,-,N/A,,Partly Cloudy,0,2013-04-30 12:51:00
8:51 AM,70.0,64.9,84,29.81,10.0,NW,4.6,-,N/A,,Mostly Cloudy,320,2013-04-30 13:51:00
9:05 AM,71.6,66.2,83,29.81,10.0,Calm,Calm,-,N/A,,Mostly Cloudy,0,2013-04-30 14:05:00
9:51 AM,73.9,66.9,79,29.81,10.0,WNW,3.5,-,N/A,,Mostly Cloudy,300,2013-04-30 14:51:00
10:51 AM,77.0,70.0,79,29.81,10.0,South,3.5,-,N/A,,Scattered Clouds,180,2013-04-30 15:51:00
11:51 AM,79.0,69.1,72,29.80,10.0,NNE,5.8,-,N/A,,Overcast,30,2013-04-30 16:51:00
12:51 PM,80.1,69.1,69,29.78,10.0,East,9.2,-,N/A,,Scattered Clouds,90,2013-04-30 17:51:00
1:51 PM,82.0,69.1,65,29.76,10.0,East,10.4,-,N/A,,Mostly Cloudy,100,2013-04-30 18:51:00
2:51 PM,82.9,66.9,58,29.75,10.0,East,11.5,-,N/A,,Scattered Clouds,90,2013-04-30 19:51:00
3:51 PM,82.9,69.1,63,29.73,10.0,East,15.0,-,N/A,,Scattered Clouds,90,2013-04-30 20:51:00
4:51 PM,82.9,69.1,63,29.72,10.0,East,16.1,-,N/A,,Partly Cloudy,100,2013-04-30 21:51:00
5:51 PM,82.9,69.1,63,29.71,10.0,ESE,16.1,-,N/A,,Partly Cloudy,110,2013-04-30 22:51:00
6:51 PM,81.0,69.1,67,29.73,10.0,ESE,15.0,-,N/A,,Partly Cloudy,120,2013-04-30 23:51:00
7:51 PM,78.1,69.1,74,29.74,10.0,ESE,16.1,-,N/A,,Partly Cloudy,120,2013-05-01 00:51:00
8:51 PM,75.9,69.1,79,29.75,10.0,ESE,12.7,-,N/A,,Partly Cloudy,120,2013-05-01 01:51:00
9:17 PM,75.2,69.8,83,29.76,10.0,ESE,12.7,-,N/A,,Partly Cloudy,120,2013-05-01 02:17:00
9:51 PM,75.0,70.0,84,29.76,10.0,SE,12.7,-,N/A,,Partly Cloudy,130,2013-05-01 02:51:00
10:19 PM,75.2,71.6,89,29.77,10.0,SE,11.5,-,N/A,,Mostly Cloudy,130,2013-05-01 03:19:00
10:51 PM,75.0,71.1,87,29.78,10.0,SE,15.0,-,N/A,,Overcast,130,2013-05-01 03:51:00
11:51 PM,75.0,71.1,87,29.78,9.0,SE,13.8,-,N/A,,Overcast,140,2013-05-01 04:51:00